When you browse on this site, cookies collect data to enhance your experience and personalize the content and advertising you see.
Visit our Privacy Policy to learn more. By continuing to use the site, you agree to this use of cookies and data.
  • In Czech Republic
  • List of Countries
  • For 7 days
  • Water Temperature
  • Weather Map
  • Weather Widgets
  • user-avatar
    Login

    Hourly Weather Eisenstadt

    Today, 6 April, Monday

    Time Temperature Precipitation Wind Pressure Humidity
    00:00 +7°C° 0 mm 1 mps 730 mmHg 72%
    01:00 +7°C° 0 mm 1 mps 730 mmHg 75%
    02:00 +6°C° 0 mm 1 mps 730 mmHg 77%
    03:00 +6°C° 0 mm 1 mps 730 mmHg 78%
    04:00 +6°C° 0 mm 1 mps 729 mmHg 80%
    05:00 +7°C° 0 mm 1 mps 730 mmHg 77%
    06:00 +7°C° 0 mm 2 mps 730 mmHg 74%
    07:00 +8°C° 0 mm 2 mps 731 mmHg 68%
    08:00 +9°C° 0 mm 3 mps 731 mmHg 62%
    09:00 +11°C° 0 mm 4 mps 731 mmHg 56%
    10:00 +13°C° 0 mm 6 mps 732 mmHg 50%
    11:00 +13°C° 0 mm 6 mps 732 mmHg 45%
    12:00 +14°C° 0 mm 6 mps 732 mmHg 41%
    13:00 +15°C° 0 mm 5 mps 732 mmHg 36%
    14:00 +15°C° 0 mm 5 mps 731 mmHg 37%
    15:00 +15°C° 0 mm 5 mps 731 mmHg 38%
    16:00 +14°C° 0 mm 5 mps 731 mmHg 39%
    17:00 +13°C° 0 mm 4 mps 731 mmHg 45%
    18:00 +11°C° 0 mm 4 mps 731 mmHg 51%
    19:00 +9°C° 0 mm 3 mps 731 mmHg 57%
    20:00 +8°C° 0 mm 3 mps 732 mmHg 59%
    21:00 +7°C° 0 mm 3 mps 732 mmHg 60%
    22:00 +5°C° 0 mm 3 mps 733 mmHg 62%
    23:00 +5°C° 0 mm 3 mps 733 mmHg 61%

    Tomorrow, 7 April, Tuesday

    Time Temperature Precipitation Wind Pressure Humidity
    00:00 +5°C° 0 mm 3 mps 733 mmHg 59%
    01:00 +4°C° 0 mm 3 mps 733 mmHg 58%
    02:00 +5°C° 0 mm 2 mps 733 mmHg 58%
    03:00 +4°C° 0 mm 2 mps 733 mmHg 58%
    04:00 +4°C° 0 mm 2 mps 733 mmHg 58%
    05:00 +5°C° 0 mm 2 mps 733 mmHg 57%
    06:00 +5°C° 0 mm 2 mps 734 mmHg 55%
    07:00 +6°C° 0 mm 2 mps 734 mmHg 53%
    08:00 +8°C° 0 mm 3 mps 734 mmHg 47%
    09:00 +10°C° 0 mm 3 mps 734 mmHg 41%
    10:00 +12°C° 0 mm 4 mps 734 mmHg 35%
    11:00 +13°C° 0 mm 4 mps 734 mmHg 32%
    12:00 +14°C° 0 mm 4 mps 734 mmHg 29%
    13:00 +15°C° 0 mm 4 mps 734 mmHg 27%
    14:00 +15°C° 0 mm 4 mps 734 mmHg 27%
    15:00 +15°C° 0 mm 4 mps 733 mmHg 28%
    16:00 +15°C° 0 mm 4 mps 733 mmHg 29%
    17:00 +12°C° 0 mm 3 mps 733 mmHg 35%
    18:00 +10°C° 0 mm 3 mps 733 mmHg 41%
    19:00 +8°C° 0 mm 2 mps 732 mmHg 47%
    20:00 +8°C° 0 mm 2 mps 733 mmHg 48%
    21:00 +7°C° 0 mm 3 mps 733 mmHg 49%
    22:00 +5°C° 0 mm 3 mps 733 mmHg 50%
    23:00 +5°C° 0 mm 3 mps 733 mmHg 50%

    Day after tomorrow, 8 April, Wednesday

    Time Temperature Precipitation Wind Pressure Humidity
    00:00 +4°C° 0 mm 3 mps 733 mmHg 51%
    01:00 +4°C° 0 mm 3 mps 733 mmHg 51%
    02:00 +4°C° 0 mm 3 mps 733 mmHg 51%
    03:00 +4°C° 0 mm 2 mps 733 mmHg 51%
    04:00 +4°C° 0 mm 2 mps 733 mmHg 51%
    05:00 +5°C° 0 mm 2 mps 732 mmHg 48%
    06:00 +6°C° 0 mm 2 mps 732 mmHg 46%
    07:00 +7°C° 0 mm 2 mps 732 mmHg 44%
    08:00 +9°C° 0 mm 3 mps 732 mmHg 39%
    09:00 +11°C° 0 mm 4 mps 732 mmHg 34%
    10:00 +14°C° 0 mm 4 mps 732 mmHg 29%
    11:00 +14°C° 0 mm 4 mps 732 mmHg 28%
    12:00 +15°C° 0 mm 4 mps 731 mmHg 28%
    13:00 +17°C° 0 mm 4 mps 731 mmHg 27%
    14:00 +17°C° 0 mm 4 mps 730 mmHg 29%
    15:00 +17°C° 0 mm 4 mps 730 mmHg 31%
    16:00 +17°C° 0 mm 4 mps 729 mmHg 33%
    17:00 +14°C° 0 mm 3 mps 729 mmHg 40%
    18:00 +11°C° 0 mm 3 mps 728 mmHg 47%
    19:00 +9°C° 0 mm 2 mps 728 mmHg 54%
    20:00 +9°C° 0 mm 2 mps 728 mmHg 56%
    21:00 +8°C° 0 mm 3 mps 729 mmHg 57%
    22:00 +7°C° 0 mm 3 mps 729 mmHg 58%
    23:00 +7°C° 0 mm 3 mps 728 mmHg 59%

    9 April, Thursday

    Time Temperature Precipitation Wind Pressure Humidity
    00:00 +7°C° 0 mm 3 mps 728 mmHg 60%
    01:00 +5°C° 0 mm 3 mps 728 mmHg 61%
    02:00 +6°C° 0 mm 2 mps 728 mmHg 62%
    03:00 +6°C° 0 mm 2 mps 727 mmHg 63%
    04:00 +5°C° 0 mm 2 mps 727 mmHg 64%
    05:00 +6°C° 0 mm 2 mps 727 mmHg 61%
    06:00 +9°C° 0 mm 1 mps 727 mmHg 58%
    07:00 +10°C° 0 mm 1 mps 727 mmHg 55%
    08:00 +12°C° 0 mm 1 mps 727 mmHg 49%
    09:00 +15°C° 0 mm 1 mps 727 mmHg 43%
    10:00 +18°C° 0 mm 1 mps 728 mmHg 37%
    11:00 +19°C° 0 mm 1 mps 727 mmHg 35%
    12:00 +20°C° 0 mm 1 mps 727 mmHg 34%
    13:00 +21°C° 0 mm 1 mps 727 mmHg 33%
    14:00 +21°C° 0 mm 1 mps 726 mmHg 35%
    15:00 +20°C° 0 mm 1 mps 726 mmHg 36%
    16:00 +20°C° 0 mm 1 mps 726 mmHg 38%
    17:00 +18°C° 0 mm 1 mps 726 mmHg 45%
    18:00 +15°C° 0 mm 1 mps 725 mmHg 52%
    19:00 +12°C° 0 mm 0 mps 725 mmHg 59%
    20:00 +13°C° 0 mm 1 mps 726 mmHg 59%
    21:00 +12°C° 0 mm 1 mps 726 mmHg 60%
    22:00 +12°C° 0 mm 2 mps 726 mmHg 61%
    23:00 +12°C° 0 mm 2 mps 726 mmHg 63%

    10 April, Friday

    Time Temperature Precipitation Wind Pressure Humidity
    00:00 +10°C° 0 mm 2 mps 727 mmHg 66%
    01:00 +10°C° 0 mm 2 mps 727 mmHg 68%
    02:00 +10°C° 0 mm 2 mps 727 mmHg 69%
    03:00 +9°C° 0 mm 2 mps 727 mmHg 70%
    04:00 +9°C° 0 mm 2 mps 727 mmHg 71%
    05:00 +10°C° 0 mm 2 mps 727 mmHg 70%
    06:00 +12°C° 0 mm 2 mps 727 mmHg 68%
    07:00 +13°C° 0 mm 2 mps 727 mmHg 66%
    08:00 +14°C° 0 mm 2 mps 728 mmHg 63%
    09:00 +14°C° 0 mm 3 mps 728 mmHg 60%
    10:00 +17°C° 0 mm 4 mps 728 mmHg 58%
    11:00 +17°C° 0 mm 3 mps 728 mmHg 55%
    12:00 +18°C° 0 mm 3 mps 727 mmHg 52%
    13:00 +19°C° 0 mm 3 mps 727 mmHg 49%
    14:00 +19°C° 0 mm 2 mps 727 mmHg 50%
    15:00 +18°C° 0 mm 2 mps 726 mmHg 52%
    16:00 +18°C° 0 mm 2 mps 726 mmHg 53%
    17:00 +16°C° 0 mm 2 mps 726 mmHg 60%
    18:00 +15°C° 0 mm 1 mps 726 mmHg 67%
    19:00 +13°C° 0 mm 1 mps 725 mmHg 74%
    20:00 +12°C° 0 mm 1 mps 726 mmHg 76%
    21:00 +12°C° 0 mm 1 mps 726 mmHg 77%
    22:00 +10°C° 0 mm 0 mps 726 mmHg 79%
    23:00 +11°C° 0 mm 1 mps 726 mmHg 81%

    11 April, Saturday

    Time Temperature Precipitation Wind Pressure Humidity
    00:00 +10°C° 0 mm 1 mps 726 mmHg 83%
    01:00 +10°C° 0 mm 1 mps 726 mmHg 84%
    02:00 +9°C° 0 mm 1 mps 726 mmHg 86%
    03:00 +9°C° 0 mm 1 mps 726 mmHg 87%
    04:00 +9°C° 0 mm 1 mps 725 mmHg 88%
    05:00 +10°C° 0 mm 1 mps 726 mmHg 84%
    06:00 +10°C° 0 mm 0 mps 726 mmHg 80%
    07:00 +11°C° 0 mm 0 mps 726 mmHg 76%
    08:00 +14°C° 0 mm 1 mps 726 mmHg 69%
    09:00 +16°C° 0 mm 1 mps 726 mmHg 62%
    10:00 +19°C° 0 mm 1 mps 726 mmHg 56%
    11:00 +19°C° 0.1 mm 1 mps 726 mmHg 54%
    12:00 +19°C° 0.1 mm 2 mps 726 mmHg 53%
    13:00 +19°C° 0.1 mm 2 mps 725 mmHg 51%
    14:00 +19°C° 0.2 mm 2 mps 725 mmHg 53%
    15:00 +19°C° 0.2 mm 2 mps 724 mmHg 55%
    16:00 +18°C° 0.2 mm 2 mps 724 mmHg 58%
    17:00 +17°C° 0.1 mm 2 mps 724 mmHg 64%
    18:00 +15°C° 0.1 mm 1 mps 724 mmHg 70%
    19:00 +14°C° 0.1 mm 1 mps 724 mmHg 77%
    20:00 +13°C° 0 mm 1 mps 724 mmHg 79%
    21:00 +12°C° 0 mm 1 mps 724 mmHg 81%
    22:00 +12°C° 0 mm 2 mps 724 mmHg 83%
    23:00 +12°C° 0 mm 2 mps 724 mmHg 85%
    Show more